Regional Weather Roundup
Issued by NWS

Home | Current Version | Previous Version | Text Only | Print | Product List | Glossary On
Versions: 1 2 3 4 5 6 7 8 9 10 11 12 13 14 15 16 17 18 19 20 21 22 23 24 25 26 27 28 29 30 31 32 33 34 35 36 37 38 39 40 41 42 43 44 45 46 47 48 49 50
000
ASUS43 KDTX 280001
RWRMI
MICHIGAN HOURLY REGIONAL WEATHER ROUNDUP
NATIONAL WEATHER SERVICE DETROIT/PONTIAC MI
800 PM EDT MON MAR 27 2017

NOTE: "FAIR" INDICATES FEW OR NO CLOUDS BELOW 12,000 FEET WITH NO
SIGNIFICANT WEATHER AND/OR OBSTRUCTION TO VISIBILITY.

MIZ047>049-052>055-059>063-066>070-074>076-081>083-280100-
SOUTHEAST LOWER MICHIGAN

CITY           SKY/WX    TMP DP  RH WIND       PRES   REMARKS
ADRIAN         CLOUDY    55  49  80 CALM      29.89S
6HR MIN TEMP:  55; 6HR MAX TEMP:  58;

ALMA           CLOUDY    47  42  84 W6        29.93R
ANN ARBOR      CLOUDY    56  50  80 W3        29.88S
BAD AXE        CLOUDY    41  40  97 NE5       29.92S
6HR MIN TEMP:  41; 6HR MAX TEMP:  49;

CARO           CLOUDY    49  45  85 NW3       29.91R
DETROIT CITY   CLOUDY    56  50  80 SW8       29.88S
6HR MIN TEMP:  56; 6HR MAX TEMP:  62;

DETROIT        CLOUDY    59  49  69 W7        29.89S
6HR MIN TEMP:  59; 6HR MAX TEMP:  63;

FLINT          CLOUDY    51  45  79 NW8       29.90R
6HR MIN TEMP:  51; 6HR MAX TEMP:  57;

GROSSE ILE     CLOUDY    47  44  90 CALM      29.88S
6HR MIN TEMP:  45; 6HR MAX TEMP:  60;

HILLSDALE      LGT RAIN  52  46  82 W3        29.88S
HOWELL         CLOUDY    53  46  78 NW5       29.90R
6HR MIN TEMP:  53; 6HR MAX TEMP:  57;


CITY           SKY/WX    TMP DP  RH WIND       PRES   REMARKS
JACKSON        CLOUDY    54  47  77 N7        29.90R
6HR MIN TEMP:  54; 6HR MAX TEMP:  59;

LAMBERTVILLE   CLOUDY    59  50  72 CALM      29.89R
6HR MIN TEMP:  58; 6HR MAX TEMP:  62;

LANSING        CLOUDY    50  43  77 NW9       29.92R
6HR MIN TEMP:  50; 6HR MAX TEMP:  57;

LAPEER         CLOUDY    52  46  79 NW7       29.90S
6HR MIN TEMP:  52; 6HR MAX TEMP:  56;

MASON          CLOUDY    52  48  84 NW7       29.91R
MONROE         CLOUDY    56  52  85 CALM      29.88S
MT. CLEMENS    CLOUDY    53  51  95 CALM      29.87R
6HR MIN TEMP:  53; 6HR MAX TEMP:  62;

PONTIAC        CLOUDY    54  47  77 N12       29.88R
6HR MIN TEMP:  54; 6HR MAX TEMP:  58;

PORT HOPE        N/A     36  35  96 CALM      29.92R
6HR MIN TEMP:  36; 6HR MAX TEMP:  50;

PORT HURON     CLOUDY    54  48  82 CALM      29.89S
TRI CITIES     CLOUDY    49  44  83 W5        29.92R
6HR MIN TEMP:  48; 6HR MAX TEMP:  51;

MIDLAND        CLOUDY    49  41  74 NW3       29.91S
6HR MIN TEMP:  48; 6HR MAX TEMP:  51;

TROY           CLOUDY    58  48  69 W5        29.90R
SAGINAW HB     CLOUDY    50  41  71 W5        29.91R
$$
MIZ043>046-050>051-056>058-064>065-071>073-077>080-280100-
SOUTHWEST LOWER MICHIGAN

CITY           SKY/WX    TMP DP  RH WIND       PRES   REMARKS
BATTLE CREEK   CLOUDY    51  47  86 NW8       29.92R
6HR MIN TEMP:  51; 6HR MAX TEMP:  54;

BENTON HARBOR  CLOUDY    43  37  79 VRB3      29.93R
6HR MIN TEMP:  42; 6HR MAX TEMP:  50;

BIG RAPIDS     CLOUDY    43  38  83 NW6       29.93R
6HR MIN TEMP:  43; 6HR MAX TEMP:  46;

COLDWATER      CLOUDY    53  50  88 N7        29.90R
6HR MIN TEMP:  53; 6HR MAX TEMP:  57;

FREMONT        CLOUDY    42  36  78 N8        29.94R
HOLLAND        CLOUDY    42  36  79 NW6       29.94R
6HR MIN TEMP:  42; 6HR MAX TEMP:  47;

GRAND RAPIDS   CLOUDY    48  43  82 NW9       29.92R
6HR MIN TEMP:  48; 6HR MAX TEMP:  52;

IONIA          CLOUDY    48  42  80 N6        29.91R
6HR MIN TEMP:  48; 6HR MAX TEMP:  53;

KALAMAZOO      CLOUDY    50  44  80 N9        29.92R
6HR MIN TEMP:  50; 6HR MAX TEMP:  55;

LUDINGTON      CLOUDY    38  35  91 N5        29.96R WCI  34
6HR MIN TEMP:  37; 6HR MAX TEMP:  41;

MARSHALL       CLOUDY    52  48  86 NW5       29.90R
6HR MIN TEMP:  52; 6HR MAX TEMP:  57;

MOUNT PLEASANT CLOUDY    46  40  78 NW6       29.92R
6HR MIN TEMP:  46; 6HR MAX TEMP:  49;

MUSKEGON       CLOUDY    43  36  76 NW7       29.95S
6HR MIN TEMP:  43; 6HR MAX TEMP:  48;

SOUTH HAVEN    CLOUDY    40  38  90 N6        29.94R
$$
MIZ016>042-280100-
NORTHERN LOWER MICHIGAN

CITY           SKY/WX    TMP DP  RH WIND       PRES   REMARKS
ALPENA         CLOUDY    40  37  89 NW6       29.95R
6HR MIN TEMP:  40; 6HR MAX TEMP:  43;

BEAVER ISLAND  CLOUDY    36  34  93 NW3       29.97R
6HR MIN TEMP:  36; 6HR MAX TEMP:  39;

BELLAIRE       CLOUDY    37  34  89 CALM      29.97R
6HR MIN TEMP:  37; 6HR MAX TEMP:  39;

CADILLAC       CLOUDY    37  36  97 N7        29.93R FOG     WCI  32
CHARLEVOIX     CLOUDY    37  37  99 W5        30.00R WCI  33
6HR MIN TEMP:  36; 6HR MAX TEMP:  38;

FRANKFORT      CLOUDY    37  33  87 N3        29.97R
GAYLORD        CLOUDY    36  33  89 CALM      29.93R FOG
6HR MIN TEMP:  36; 6HR MAX TEMP:  40;

GRAYLING       CLOUDY    37  34  87 W5        29.95R WCI  34
HARBOR SPRINGS CLOUDY    33  33 100 CALM      29.96R
HOUGHTON LAKE  CLOUDY    39  36  89 NW6       29.93R WCI  35
6HR MIN TEMP:  39; 6HR MAX TEMP:  43;

MANISTEE       CLOUDY    37  35  92 NW7       29.96S WCI  32
OSCODA         MIX PCPN  37  37  97 E3        29.93R
6HR MIN TEMP:  37; 6HR MAX TEMP:  45;

PELLSTON       CLOUDY    38  33  82 NW7       29.96R WCI  33
6HR MIN TEMP:  38; 6HR MAX TEMP:  40;

ROGERS CITY    CLOUDY    38  36  92 NW6       29.96R FOG     WCI  34
TRAVERSE CITY  CLOUDY    39  34  82 N5        29.96R
6HR MIN TEMP:  38; 6HR MAX TEMP:  40; 6HR PCP: TRACE;

$$
MIZ007>008-015-280100-
EASTERN UPPER MICHIGAN

CITY           SKY/WX    TMP DP  RH WIND       PRES   REMARKS
KINROSS        LGT RAIN  34  33  96 NW6       29.95R WCI  29
6HR MIN TEMP:  34; 6HR MAX TEMP:  39; 6HR PCP: TRACE;

MACKINAC ISLAN CLOUDY    35  35 100 NW5       29.95R WCI  31
6HR MIN TEMP:  34; 6HR MAX TEMP:  37;

NEWBERRY       CLOUDY    34  33  96 N5        29.95S WCI  30
6HR MIN TEMP:  34; 6HR MAX TEMP:  36;

S. S. MARIE    CLOUDY    36  32  85 NW8       29.94R WCI  30
6HR MIN TEMP:  36; 6HR MAX TEMP:  40; 6HR PCP: TRACE;

MUNISING         N/A     34  33  96 CALM      29.98R
6HR MIN TEMP:  33; 6HR MAX TEMP:  35;

$$
MIZ004>006-011>014-085-280100-
CENTRAL UPPER MICHIGAN

CITY           SKY/WX    TMP DP  RH WIND       PRES   REMARKS
MANISTIQUE     CLOUDY    36  34  93 N6        29.97R WCI  31
ESCANABA       CLOUDY    39  35  86 SE3       29.98R
6HR MIN TEMP:  39; 6HR MAX TEMP:  43;

MENOMINEE        N/A    N/A N/A N/A MISG        N/A
SAWYER-GWINN   CLEAR     37  34  87 CALM      29.97R
$$
MIZ001>003-009>011-084-280100-
WESTERN UPPER MICHIGAN

CITY           SKY/WX    TMP DP  RH WIND       PRES   REMARKS
IRON MOUNTAIN  CLOUDY    40  34  79 NW5       29.95R
6HR MIN TEMP:  40; 6HR MAX TEMP:  43;

HOUGHTON       CLOUDY    35  30  82 NW13      29.97R WCI  26
6HR MIN TEMP:  35; 6HR MAX TEMP:  39;

COPPER HARBOR    N/A     33  33 100 N10G21    29.98R WCI  25
6HR MIN TEMP:  33; 6HR MAX TEMP:  39;

IRONWOOD       CLOUDY    42  32  67 N5        29.99R
6HR MIN TEMP:  41; 6HR MAX TEMP:  49;

$$

ABBREVIATIONS USED IN REMARKS
   TC - TEMPERATURE IN CELSIUS
  WCI - WIND CHILL INDEX
   HX - HEAT INDEX
  VSB - VISIBILITY





USA.gov is the U.S. government's official web portal to all federal, state and local government web resources and services.